[Iaude] MPEC H01: 2024 GG6 [a=1.15,e=0.11,i=19.8,H=25.3]
    mpec at cfa.harvard.edu 
    mpec at cfa.harvard.edu
       
    Mon Apr 15 22:36:02 EDT 2024
    
    
  
M.P.E.C. 2024-H01                                Issued 2024 April 16, 02:34 UT
     The Minor Planet Electronic Circulars contain information on unusual
         minor planets, routine data on comets and natural satellites,
         and occasional editorial announcements.  They are published
    on behalf of Division F of the International Astronomical Union by the
          Minor Planet Center, Smithsonian Astrophysical Observatory,
                          Cambridge, MA 02138, U.S.A.
			  
             Prepared using the Tamkin Foundation Computer Network
                              MPC at CFA.HARVARD.EDU
            URL https://www.minorplanetcenter.net/    ISSN 1523-6714
                                    2024 GG6                                    
Observations:
     K24G06G 1C2024 04 14.36694 14 04 23.50 -04 18 15.9          17.5 GVEH001703
     K24G06G 1C2024 04 14.36921 14 04 25.56 -04 16 15.6          17.5 GVEH001703
     K24G06G*1C2024 04 15.34396614 20 55.345+09 15 46.58         18.13GVEH001703
     K24G06G 1C2024 04 15.34602914 20 57.052+09 17 22.52         18.41GVEH001703
     K24G06G 1C2024 04 15.34809514 20 58.740+09 18 59.04         18.00GVEH001703
     K24G06G 1C2024 04 15.35017314 21 00.504+09 20 35.52         18.54GVEH001703
     K24G06G KC2024 04 15.41217314 21 52.049+10 08 13.38         18.08GVEH001I52
     K24G06G KC2024 04 15.41268714 21 52.492+10 08 36.89         18.16GVEH001I52
     K24G06G KC2024 04 15.41319914 21 52.913+10 09 00.36         18.24GVEH001I52
     K24G06G KC2024 04 15.41371314 21 53.348+10 09 23.94         18.10GVEH001I52
     K24G06G KC2024 04 15.44933714 22 23.369+10 36 26.71         18.01GVEH001I52
     K24G06G KC2024 04 15.44984714 22 23.801+10 36 49.82         18.15GVEH001I52
     K24G06G KC2024 04 15.45036014 22 24.244+10 37 13.04         18.14GVEH001I52
     K24G06G KC2024 04 15.45087314 22 24.683+10 37 36.34         18.06GVEH001I52
     K24G06G KB2024 04 15.58836 14 25 00.58 +12 19 51.0          18.1 GVEH001P13
     K24G06G KB2024 04 15.59541 14 25 06.49 +12 25 04.9          18.3 GVEH001P13
     K24G06G KC2024 04 15.59840 14 24 58.89 +12 34 31.6          18.0 VqEH001E23
     K24G06G KB2024 04 15.60276 14 25 12.83 +12 30 31.1          18.1 GVEH001P13
     K24G06G KC2024 04 15.60673 14 25 05.58 +12 40 39.7          18.1 VqEH001E23
     K24G06G KB2024 04 15.60999 14 25 18.93 +12 35 52.4          18.4 GVEH001P13
     K24G06G KC2024 04 15.61507 14 25 12.31 +12 46 46.9          18.2 VqEH001E23
     K24G06G KB2024 04 15.61698 14 25 24.73 +12 41 02.3          17.9 GVEH001P13
     K24G06G KC2024 04 15.83209 14 28 47.61 +15 14 39.4          18.4 GVEH001104
     K24G06G KC2024 04 15.83653 14 28 51.42 +15 17 47.7          18.3 GVEH001104
     K24G06G KC2024 04 15.84093 14 28 55.14 +15 20 53.1                VEH001104
     K24G06G KB2024 04 15.84860 14 29 02.52 +15 26 13.2          17.8 GXEH001K19
     K24G06G KC2024 04 15.84921114 29 01.33 +15 26 37.8          18.4 GXEH001595
     K24G06G KB2024 04 15.85052 14 29 04.16 +15 27 33.5          17.6 GXEH001K19
     K24G06G KB2024 04 15.85235 14 29 05.74 +15 28 52.0          18.9 GXEH001K19
     K24G06G KB2024 04 15.85367 14 29 08.791+15 29 59.68         18.5 GXEH001J57
     K24G06G KC2024 04 15.85520714 29 06.38 +15 30 50.2          18.4 GXEH001595
     K24G06G KC2024 04 15.86119614 29 11.41 +15 35 02.1          18.4 GXEH001595
     K24G06G KB2024 04 15.86434 14 29 17.959+15 37 30.07         18.5 GXEH001J57
     K24G06G KC2024 04 15.86929414 29 19.104+15 40 04.76         18.5 GVEH001Z80
     K24G06G KB2024 04 15.87096 14 29 23.638+15 42 08.75         18.5 GXEH001J57
     K24G06G KC2024 04 15.87500014 29 23.988+15 44 04.09         18.6 GVEH001Z80
     K24G06G KB2024 04 15.88411714 29 33.84 +15 51 01.7          18.5 GXEH001958
     K24G06G KB2024 04 15.88727014 29 36.50 +15 53 13.6          18.7 GXEH001958
     K24G06G KB2024 04 15.89041414 29 39.10 +15 55 24.7          18.2 GXEH001958
     K24G06G 1C2024 04 15.90315 14 29 45.64 +16 03 52.1          18.5 VXEH001033
     K24G06G 1C2024 04 15.90352 14 29 45.92 +16 04 07.3          18.3 VXEH001033
     K24G06G 1C2024 04 15.90376 14 29 46.14 +16 04 17.7          18.4 VXEH001033
     K24G06G 1C2024 04 15.90399 14 29 46.30 +16 04 26.7          18.7 VXEH001033
     K24G06G KC2024 04 15.90580814 29 48.32 +16 06 11.6          18.6 GVEH001L01
     K24G06G KC2024 04 15.90694314 29 49.23 +16 06 58.6          18.5 GVEH001L01
     K24G06G KC2024 04 15.90807914 29 50.17 +16 07 46.3          18.5 GVEH001L01
     K24G06G KC2024 04 15.90921714 29 51.12 +16 08 33.2          18.6 GVEH001L01
     K24G06G KC2024 04 15.91035514 29 52.03 +16 09 20.6          18.5 GVEH001L01
     K24G06G hC2024 04 15.91908014 30 01.375+16 14 42.54         18.1 GVEH001J95
     K24G06G hC2024 04 15.92532414 30 06.566+16 19 01.42         18.2 GVEH001J95
     K24G06G hC2024 04 15.92993514 30 10.402+16 22 12.07         18.6 GVEH001J95
Observer details:
033 Karl Schwarzschild Observatory, Tautenburg.  Observers S. Melnikov, C.
    Hogner, F. Ludwig, M. Hartmann, B. Stecklum.  Measurer B. Stecklum.
    1.34-m f/3 Schmidt + CCD.
104 San Marcello Pistoiese.  Observers P. Bacci, M. Maestripieri.  Measurer P.
    Bacci.  0.60-m f/4.0 reflector + CCD.
595 Farra d'Isonzo.  Observer E. Pettarin.  0.61-m f/4.5 reflector + CCD.
703 Catalina Sky Survey.  Observer R. A. Kowalski.  Measurers B. Gray, D.
    Rankin, F. C. Shelly, T. Beuden, V. F. Carvajal, D. Fay, J. B. Fazekas, D.
    C. Fuls, A. R. Gibbs, A. D. Grauer, H. Groeller, J. K. Hogan, R. A.
    Kowalski, S. M. Larson, G. J. Leonard, R. L. Seaman, K. W. Wierzchos.
    0.68-m Schmidt + 10K CCD.
958 Observatoire de Dax.  Observer P. Dupouy.  0.50-m f/4.5 Reflector + CMO.
E23 Arcadia.  Observer A. Hidas.  0.35-m f/1.9 reflector + CCD.
I52 Steward Observatory, Mt. Lemmon Station.  Observers J. B. Fazekas, T.
    Beuden.  Measurers T. Beuden, V. F. Carvajal, D. Fay, J. B. Fazekas, D. C.
    Fuls, A. R. Gibbs, A. D. Grauer, H. Groeller, J. K. Hogan, R. A. Kowalski,
    S. M. Larson, G. J. Leonard, D. Rankin, R. L. Seaman, F. C. Shelly, K. W.
    Wierzchos.  1.0-m prime focus + CCD.
J57 Centro Astronomico Alto Turia, Valencia.  Observer A. Fornas.  Measurers
    A. Fornas, G. Fornas, E. Arce, V. Mas.  0.43-m f/6.8 Reflector CDK + CMO.
J95 Great Shefford.  Observer P. Birtwhistle.  0.41-m f/6.3 Schmidt-Cassegrain
    + CCD.
K19 PASTIS Observatory, Banon.  Observer C. Demeautis.  0.28-m f/2.2 reflector
    + CMO.
L01 Visnjan Observatory, Tican.  Observer K. Korlevic.  1.0-m f/2.9 reflector
    + CCD.
P13 Baihuashan Observatory, Beijing.  Observers Z. Wang, B. Liu.  Measurer Z.
    Wang.  0.28-m f/2.2 reflector + CMO.
Z80 Northolt Branch Observatory.  Observer G. Wells.  0.25-m f/8.0 Ritchey-
    Chretien + CCD.
Orbital elements:
2024 GG6                                                 Earth MOID = 0.0223 AU
Epoch 2024 Mar. 31.0 TT = JDT 2460400.5                 Veres                   
M 354.95267              (2000.0)            P               Q                  
n   0.80406782     Peri.  352.43184     -0.95489200     +0.26234621             
a   1.1453571      Node   204.21380     -0.25157722     -0.96361044             
e   0.1055377      Incl.   19.82880     -0.15776617     -0.05127755             
P   1.23           H   25.32          G   0.15           U   7                  
Residuals in seconds of arc
240414 703  0.3+  0.4-    240415 P13  0.2+  1.0-    240415 J57  0.6+  0.8+
240414 703  0.5-  0.4+    240415 E23  0.2-  0.2+    240415 Z80  0.7+  0.5-
240415 703  0.2+  0.2-    240415 P13  0.5+  0.7-    240415 958  0.1+  0.3-
240415 703  0.1+  0.2-    240415 E23  0.1-  0.3-    240415 958  0.1+  0.4-
240415 703  0.3-  0.3+    240415 P13  0.3-  0.5-    240415 958  0.4-  0.8-
240415 703  0.3+  0.3+    240415 104  0.2+  0.0     240415 033  0.3+  0.0
240415 I52  0.1-  0.2-    240415 104  0.1+  0.1+    240415 033  0.1-  0.2-
240415 I52  0.1+  0.2-    240415 104  0.5-  0.7-    240415 033  0.2+  0.2+
240415 I52  0.0   0.2-    240415 K19  0.1+  0.1+    240415 033  0.2-  0.3-
240415 I52  0.0   0.1-    240415 595  0.3+  0.3+    240415 L01  0.4-  0.0
240415 I52  0.0   0.2-    240415 K19  0.0   0.7-    240415 L01  0.6-  0.2-
240415 I52  0.0   0.2-    240415 K19  0.3+  0.5+    240415 L01  0.4-  0.3+
240415 I52  0.1+  0.2-    240415 J57  0.2-  0.4+    240415 L01  0.1-  0.0
240415 I52  0.1+  0.2-    240415 595  0.1+  0.1-    240415 L01  0.3-  0.1+
240415 P13  0.5-  0.3-    240415 595  0.0   0.4-    240415 J95  0.1-  0.0
240415 P13  1.6-  0.4-    240415 J57  0.0   0.7+    240415 J95  0.2-  0.2+
240415 E23  0.3+  0.1+    240415 Z80  0.9+  0.4-    240415 J95  0.0   0.0
Ephemeris:
2024 GG6                 a,e,i = 1.15, 0.11, 20                  q = 1.0245
Date    TT    R. A. (2000) Decl.     Delta      r    Elong.  Phase     V
2024 03 17    07 52 02.7 -72 19 29   0.1660  1.0305    97.7    73.1    24.0
...
2024 04 01    09 27 16.3 -72 01 16   0.08148 1.0249   106.1    69.5    22.4
...
2024 04 09    12 07 24.6 -59 14 08   0.03759 1.0246   126.9    51.4    20.1
...
2024 04 15    14 15 18.9 +04 43 22   0.02343 1.0256   162.2    17.4    18.1
2024 04 16    14 31 03.0 +17 12 43   0.02578 1.0258   149.6    29.7    18.7
2024 04 17    14 45 08.8 +27 06 59   0.02923 1.0261   139.3    39.6    19.3
...
2024 04 23    15 43 06.1 +52 44 04   0.05939 1.0285   111.3    65.6    21.6
...
2024 05 01    16 20 09.9 +60 42 53   0.1049  1.0332   101.3    73.0    23.0
...
2024 05 16    16 45 41.2 +63 59 34   0.1877  1.0465    95.7    74.0    24.4
                      (Last issue was M.P.E.C. 2024-G215)                       
M. P. C. Staff               (C) Copyright 2024 MPC           M.P.E.C. 2024-H01
    
    
More information about the Iaude
mailing list